FW6564 Weather Reports


time (UTC)temp
C
wind
direction
speed
KPH
gust
KPH
rain 1hr
cm
rain 24hr
cm
rain mn
cm
humidity
%
barometer
mb
20260507083526 20 285 4.8 20.9 0.00 0.00 0.00 63 1013.1
20260507083042 20 256 6.4 20.9 0.00 0.00 0.00 62 1013.2
20260507082526 20 205 8.0 20.9 0.00 0.00 0.00 62 1013.0
20260507082026 20 181 6.4 19.3 0.00 0.00 0.00 63 1012.8
20260507081547 20 177 4.8 20.9 0.00 0.00 0.00 64 1012.8
20260507081026 20 223 9.7 24.1 0.00 0.00 0.00 63 1012.8
20260507080527 20 178 8.0 24.1 0.00 0.00 0.00 62 1012.8
20260507080053 20 238 11.3 24.1 0.00 0.00 0.00 62 1012.8
20260507075526 20 255 9.7 20.9 0.00 0.00 0.00 63 1012.8
20260507075026 20 180 9.7 22.5 0.00 0.00 0.00 63 1012.8
20260507074543 20 179 9.7 24.1 0.00 0.00 0.00 63 1012.8
20260507074025 19 198 8.0 24.1 0.00 0.00 0.00 65 1013.0
20260507073526 19 180 6.4 16.1 0.00 0.00 0.00 66 1013.0
20260507073048 19 194 6.4 16.1 0.00 0.00 0.00 66 1013.0
20260507072528 19 198 4.8 14.5 0.00 0.00 0.00 67 1013.0
20260507072025 19 196 4.8 16.1 0.00 0.00 0.00 68 1013.1
20260507071541 19 225 6.4 16.1 0.00 0.00 0.00 67 1013.1
20260507071025 19 181 6.4 16.1 0.00 0.00 0.00 68 1013.1
20260507070527 19 189 6.4 17.7 0.00 0.00 0.00 69 1012.9
20260507070041 18 329 6.4 17.7 0.00 0.00 0.00 68 1012.9
20260507065527 18 188 6.4 19.3 0.00 0.00 0.00 69 1012.8
20260507065027 18 252 6.4 19.3 0.00 0.00 0.00 69 1012.8
20260507064544 18 216 3.2 16.1 0.00 0.00 0.00 71 1012.8
20260507064026 18 264 6.4 17.7 0.00 0.00 0.00 72 1012.7
20260507063526 17 258 6.4 17.7 0.00 0.00 0.00 74 1012.7
20260507063045 17 259 6.4 17.7 0.00 0.00 0.00 76 1012.6
20260507062526 17 240 4.8 16.1 0.00 0.00 0.00 76 1012.5
20260507062026 17 252 3.2 14.5 0.00 0.00 0.00 76 1012.5
20260507061542 17 223 3.2 14.5 0.00 0.00 0.00 76 1012.6
20260507061027 17 254 4.8 14.5 0.00 0.00 0.00 76 1012.5
20260507060525 17 243 4.8 12.9 0.00 0.00 0.00 77 1012.6
20260507060046 17 231 3.2 12.9 0.00 0.00 0.00 78 1012.5
20260507055527 16 240 4.8 12.9 0.00 0.03 0.00 79 1012.5
20260507055029 16 279 4.8 12.9 0.00 0.03 0.00 80 1012.5
20260507054541 16 0 3.2 12.9 0.00 0.03 0.00 80 1012.5
20260507054026 16 210 3.2 11.3 0.00 0.03 0.00 80 1012.5
20260507053526 16 252 1.6 9.7 0.00 0.03 0.00 80 1012.5
20260507053042 16 232 1.6 11.3 0.00 0.03 0.00 81 1012.4
20260507052526 16 192 6.4 11.3 0.00 0.03 0.00 82 1012.3
20260507052026 16 0 3.2 12.9 0.00 0.03 0.00 83 1012.2
20260507051540 16 237 1.6 12.9 0.00 0.03 0.00 84 1012.3
20260507051025 16 209 4.8 12.9 0.00 0.03 0.00 84 1012.1
20260507050527 16 200 4.8 9.7 0.00 0.03 0.00 85 1012.1
20260507050046 16 208 3.2 9.7 0.00 0.03 0.00 86 1012.1
20260507045526 15 209 1.6 9.7 0.00 0.13 0.00 86 1012.1
20260507045026 15 221 1.6 4.8 0.00 0.13 0.00 87 1012.1
20260507044542 15 224 1.6 4.8 0.00 0.13 0.00 87 1012.1
20260507044025 15 225 0.0 4.8 0.00 0.13 0.00 87 1012.0
20260507043526 15 225 0.0 4.8 0.00 0.13 0.00 87 1012.0
20260507043041 15 0 1.6 6.4 0.00 0.13 0.00 87 1012.0
20260507042526 15 225 1.6 6.4 0.00 0.13 0.00 87 1012.0
20260507042025 15 225 3.2 6.4 0.00 0.13 0.00 88 1011.9
20260507041540 15 231 1.6 4.8 0.00 0.13 0.00 88 1011.9
20260507041026 15 234 0.0 4.8 0.00 0.13 0.00 88 1011.9
20260507040526 16 0 0.0 4.8 0.00 0.13 0.00 88 1011.8
20260507040043 16 235 3.2 4.8 0.00 0.13 0.00 88 1011.9
20260507035526 16 235 0.0 3.2 0.00 0.13 0.00 87 1011.8
20260507035026 16 235 1.6 3.2 0.00 0.13 0.00 87 1011.8
20260507034551 16 235 0.0 4.8 0.00 0.13 0.00 87 1011.8
20260507034026 16 0 1.6 4.8 0.00 0.13 0.00 87 1011.8
20260507033526 16 0 1.6 4.8 0.00 0.13 0.00 87 1011.8
20260507033046 16 0 0.0 0.0 0.00 0.13 0.00 87 1011.7
20260507032524 16 0 0.0 0.0 0.00 0.13 0.00 86 1011.7
20260507032025 16 0 0.0 0.0 0.00 0.13 0.00 86 1011.6
20260507031541 16 0 0.0 1.6 0.00 0.13 0.00 86 1011.6
20260507031026 16 0 0.0 1.6 0.00 0.13 0.00 86 1011.7
20260507030526 16 0 0.0 3.2 0.00 0.13 0.00 86 1011.6
20260507030043 16 0 0.0 3.2 0.00 0.13 0.00 85 1011.5
20260507025525 16 234 0.0 3.2 0.00 0.13 0.00 85 1011.5
20260507025028 16 0 0.0 1.6 0.00 0.13 0.00 85 1011.4
20260507024540 16 0 0.0 4.8 0.00 0.13 0.00 85 1011.4
20260507024025 16 0 0.0 6.4 0.00 0.13 0.00 85 1011.4
20260507023525 16 234 1.6 6.4 0.00 0.13 0.00 85 1011.4
20260507023046 16 232 0.0 4.8 0.00 0.13 0.00 84 1011.5
20260507022525 16 0 1.6 4.8 0.00 0.13 0.00 84 1011.4
20260507022025 16 232 1.6 6.4 0.00 0.13 0.00 84 1011.4
20260507021547 16 0 1.6 6.4 0.00 0.10 0.00 83 1011.4
20260507021026 16 226 3.2 6.4 0.00 0.10 0.00 83 1011.3
20260507020525 16 229 1.6 4.8 0.00 0.10 0.00 82 1011.4
20260507020104 16 228 0.0 4.8 0.00 0.10 0.00 82 1011.4
20260507015526 16 229 1.6 4.8 0.00 0.10 0.00 82 1011.6
20260507015026 16 232 0.0 8.0 0.00 0.10 0.00 81 1011.7
20260507014546 16 232 1.6 8.0 0.00 0.10 0.00 81 1011.7
20260507014026 17 0 3.2 9.7 0.00 0.10 0.00 80 1011.6
20260507013526 17 254 1.6 9.7 0.00 0.10 0.00 80 1011.7
20260507013052 17 257 3.2 9.7 0.00 0.10 0.00 79 1011.6
20260507012526 17 276 3.2 16.1 0.00 0.10 0.00 79 1011.7
20260507012026 17 276 4.8 16.1 0.00 0.10 0.00 79 1011.5
20260507011541 17 247 4.8 14.5 0.00 0.10 0.00 79 1011.5
20260507011025 17 245 6.4 16.1 0.00 0.10 0.00 79 1011.4
20260507010526 17 281 6.4 16.1 0.00 0.10 0.00 79 1011.5
20260507010040 17 284 3.2 12.9 0.00 0.10 0.00 79 1011.4
20260507005525 17 263 3.2 11.3 0.00 0.10 0.00 79 1011.5
20260507005025 17 291 1.6 11.3 0.00 0.10 0.00 78 1011.4
20260507004548 17 286 1.6 4.8 0.00 0.10 0.00 78 1011.4
20260507004025 17 286 1.6 4.8 0.00 0.10 0.00 77 1011.4
20260507003525 17 286 0.0 4.8 0.00 0.10 0.00 77 1011.3
20260507003048 17 0 0.0 3.2 0.00 0.10 0.00 77 1011.3
20260507002526 17 0 0.0 3.2 0.00 0.10 0.00 77 1011.3
20260507002026 17 0 1.6 3.2 0.00 0.10 0.00 77 1011.5
20260507001546 17 0 1.6 4.8 0.00 0.10 0.00 77 1011.5
20260507001026 17 0 1.6 4.8 0.00 0.10 0.00 77 1011.6
20260507000526 17 0 0.0 3.2 0.00 0.10 0.00 76 1011.6
20260507000042 17 286 0.0 3.2 0.00 0.10 0.00 76 1011.7
20260506235528 17 0 1.6 4.8 0.00 0.10 0.00 76 1011.7
20260506235025 17 0 1.6 4.8 0.00 0.10 0.00 76 1011.5
20260506234544 17 281 0.0 3.2 0.00 0.10 0.00 75 1011.6
20260506234025 17 281 1.6 4.8 0.00 0.10 0.00 75 1011.5
20260506233527 17 281 1.6 4.8 0.00 0.10 0.00 75 1011.6
20260506233102 17 281 1.6 4.8 0.00 0.10 0.00 74 1011.5
20260506232526 18 0 0.0 4.8 0.00 0.10 0.00 74 1011.5
20260506232026 18 0 0.0 6.4 0.00 0.10 0.00 74 1011.5
20260506231538 18 0 0.0 6.4 0.00 0.10 0.00 74 1011.5
20260506231026 18 283 1.6 6.4 0.00 0.10 0.00 74 1011.6
20260506230526 18 282 1.6 11.3 0.00 0.10 0.00 74 1011.6
20260506230049 18 0 0.0 11.3 0.00 0.10 0.00 74 1011.6
20260506225526 18 264 3.2 12.9 0.00 0.36 0.00 74 1011.6
20260506225027 18 0 3.2 12.9 0.00 0.36 0.00 74 1011.4
20260506224543 18 204 0.0 8.0 0.00 0.36 0.00 74 1011.5
20260506224029 18 0 1.6 8.0 0.00 0.36 0.00 74 1011.6
20260506223525 18 204 0.0 8.0 0.00 0.36 0.00 73 1011.5
20260506223045 18 204 1.6 8.0 0.00 0.36 0.00 74 1011.5
20260506222527 18 298 3.2 11.3 0.00 0.36 0.00 73 1011.5
20260506222028 18 296 1.6 12.9 0.00 0.36 0.00 73 1011.5
20260506221543 18 251 3.2 12.9 0.00 0.36 0.00 72 1011.5
20260506221026 18 246 3.2 17.7 0.00 0.36 0.00 72 1011.5
20260506220526 18 276 6.4 17.7 0.00 0.36 0.00 72 1011.4
20260506220042 18 307 8.0 16.1 0.00 0.36 0.00 71 1011.3
20260506215526 18 296 6.4 12.9 0.00 0.46 0.36 71 1011.3
20260506215029 18 275 1.6 9.7 0.00 0.46 0.36 71 1011.4
20260506214542 18 304 3.2 12.9 0.00 0.46 0.36 71 1011.5
20260506214025 18 254 3.2 12.9 0.00 0.46 0.36 70 1011.5
20260506213528 18 328 3.2 12.9 0.00 0.46 0.36 70 1011.5
20260506213058 18 234 3.2 12.9 0.00 0.46 0.36 70 1011.5
20260506212526 18 244 3.2 12.9 0.00 0.46 0.36 70 1011.5
20260506212026 18 231 4.8 12.9 0.00 0.46 0.36 70 1011.6
20260506211543 18 250 1.6 12.9 0.00 0.46 0.36 70 1011.5
20260506211026 18 244 3.2 11.3 0.00 0.46 0.36 69 1011.6
20260506210527 18 246 3.2 11.3 0.00 0.46 0.36 69 1011.7
20260506210043 18 201 3.2 14.5 0.00 0.46 0.36 69 1011.7
20260506205528 18 200 3.2 14.5 0.00 0.46 0.36 68 1011.5
20260506205026 18 240 6.4 14.5 0.00 0.46 0.36 68 1011.5
20260506204542 19 234 4.8 16.1 0.00 0.46 0.36 68 1011.5
20260506204027 19 257 4.8 16.1 0.00 0.46 0.36 68 1011.4
20260506203526 19 236 4.8 14.5 0.00 0.46 0.36 68 1011.5
20260506203040 19 263 6.4 17.7 0.00 0.46 0.36 67 1011.3
20260506202526 19 206 3.2 19.3 0.00 0.46 0.36 67 1011.3
20260506202026 19 250 8.0 19.3 0.00 0.46 0.36 67 1011.3
20260506201542 19 254 4.8 17.7 0.00 0.46 0.36 66 1011.2
20260506201027 19 219 8.0 25.7 0.00 0.46 0.36 66 1011.2
20260506200526 20 182 8.0 25.7 0.00 0.46 0.36 66 1011.1
20260506200048 20 259 9.7 24.1 0.00 0.46 0.36 65 1011.2
20260506195526 20 197 9.7 24.1 0.00 0.64 0.36 65 1011.1
20260506195026 20 151 12.9 24.1 0.00 0.64 0.36 65 1011.1
20260506194547 20 160 12.9 24.1 0.00 0.64 0.36 65 1011.1
20260506194027 20 215 8.0 19.3 0.00 0.64 0.36 65 1011.1
20260506193530 20 212 6.4 22.5 0.00 0.64 0.36 65 1011.1
20260506193043 20 206 4.8 22.5 0.00 0.64 0.36 65 1011.1
20260506192526 20 215 8.0 22.5 0.00 0.64 0.36 65 1011.0
20260506192026 20 189 6.4 20.9 0.00 0.64 0.36 65 1010.8
20260506191543 20 140 6.4 20.9 0.00 0.64 0.36 65 1010.7
20260506191026 20 153 6.4 22.5 0.00 0.64 0.36 64 1010.7
20260506190526 20 154 8.0 22.5 0.00 0.64 0.36 64 1010.6
20260506190043 20 209 8.0 24.1 0.00 0.64 0.36 64 1010.6
20260506185530 20 155 8.0 25.7 0.00 0.66 0.36 65 1010.6
20260506185026 20 217 11.3 25.7 0.00 0.66 0.36 65 1010.4
20260506184549 20 160 8.0 17.7 0.00 0.66 0.36 65 1010.2
20260506184026 20 192 6.4 17.7 0.00 0.66 0.36 65 1010.2
20260506183528 20 135 6.4 24.1 0.00 0.66 0.36 65 1010.2
20260506183053 20 192 6.4 24.1 0.00 0.66 0.36 65 1010.1
20260506182526 20 188 8.0 29.0 0.00 0.66 0.36 66 1010.0
20260506182026 20 184 8.0 29.0 0.00 0.66 0.36 66 1009.9
20260506181609 20 158 9.7 29.0 0.00 0.66 0.36 66 1010.1
20260506181030 20 223 8.0 25.7 0.00 0.66 0.36 66 1009.9
20260506180526 20 227 9.7 25.7 0.00 0.66 0.36 66 1009.8
20260506180044 20 171 8.0 24.1 0.00 0.66 0.36 66 1009.8
20260506175525 20 192 8.0 25.7 0.00 0.74 0.36 65 1009.8
20260506175026 20 180 11.3 25.7 0.00 0.74 0.36 65 1009.8
20260506174542 20 211 8.0 19.3 0.00 0.74 0.36 65 1009.7
20260506174027 20 188 8.0 22.5 0.00 0.74 0.36 64 1009.6
20260506173531 20 179 8.0 25.7 0.00 0.74 0.36 64 1009.7
20260506173055 20 161 8.0 25.7 0.00 0.74 0.36 64 1009.6
20260506172526 20 210 9.7 24.1 0.00 0.74 0.36 63 1009.4
20260506172026 21 192 8.0 20.9 0.00 0.74 0.36 63 1009.5
20260506171546 21 188 9.7 29.0 0.00 0.74 0.36 63 1009.4
20260506171027 21 163 8.0 29.0 0.00 0.74 0.36 62 1009.5
20260506170526 21 184 9.7 25.7 0.00 0.74 0.36 62 1009.4
20260506170047 21 181 12.9 29.0 0.00 0.74 0.36 62 1009.6
20260506165526 21 125 14.5 29.0 0.00 0.74 0.36 61 1009.5
20260506165030 21 162 3.2 16.1 0.00 0.74 0.36 61 1009.5
20260506164544 21 177 6.4 14.5 0.00 0.74 0.36 60 1009.5
20260506164026 22 144 8.0 14.5 0.00 0.74 0.36 59 1009.6
20260506163527 22 176 4.8 14.5 0.00 0.74 0.36 59 1009.6
20260506163043 22 189 3.2 14.5 0.00 0.74 0.36 59 1009.5
20260506162526 22 140 8.0 20.9 0.00 0.74 0.36 59 1009.4
20260506162028 22 200 11.3 22.5 0.00 0.74 0.36 58 1009.5
20260506161539 22 165 8.0 25.7 0.00 0.74 0.36 57 1009.6
20260506161023 22 221 11.3 33.8 0.00 0.74 0.36 57 1009.6
20260506160523 22 246 11.3 33.8 0.00 0.74 0.36 57 1009.8
20260506160048 22 152 12.9 25.7 0.00 0.74 0.36 56 1009.7
20260506155525 22 209 9.7 27.4 0.00 0.74 0.36 57 1009.7
20260506155027 22 171 14.5 27.4 0.00 0.74 0.36 57 1009.8
20260506154546 22 206 6.4 17.7 0.00 0.74 0.36 58 1009.8
20260506154027 22 184 6.4 29.0 0.00 0.74 0.36 58 1009.8
20260506153527 22 181 8.0 29.0 0.00 0.74 0.36 57 1009.7
20260506153106 22 202 9.7 25.7 0.00 0.74 0.36 57 1009.8
20260506152527 22 191 6.4 20.9 0.00 0.74 0.36 58 1009.7
20260506152027 22 223 8.0 30.6 0.00 0.74 0.36 58 1009.6
20260506151544 22 205 14.5 30.6 0.00 0.74 0.36 57 1009.7
20260506151026 22 208 9.7 25.7 0.00 0.74 0.36 56 1009.7
20260506150527 23 166 9.7 24.1 0.00 0.74 0.36 55 1009.7
20260506150049 23 202 8.0 24.1 0.00 0.74 0.36 56 1009.6
20260506145527 23 265 8.0 30.6 0.00 0.74 0.36 57 1009.6
20260506145027 22 182 12.9 30.6 0.00 0.74 0.36 56 1009.5
20260506144549 22 199 8.0 22.5 0.00 0.74 0.36 57 1009.4
20260506144026 22 209 11.3 22.5 0.00 0.74 0.36 57 1009.5
20260506143526 22 209 9.7 19.3 0.00 0.74 0.36 56 1009.5
20260506143040 22 169 3.2 14.5 0.00 0.74 0.36 59 1009.5
20260506142523 22 198 4.8 12.9 0.00 0.74 0.36 58 1009.4
20260506142029 22 184 4.8 11.3 0.00 0.74 0.36 58 1009.5
20260506141542 22 315 4.8 11.3 0.00 0.74 0.36 58 1009.6
20260506141027 22 269 1.6 12.9 0.00 0.74 0.36 58 1009.6
20260506140527 22 194 4.8 19.3 0.00 0.74 0.36 57 1009.8
20260506140043 22 234 1.6 19.3 0.00 0.74 0.36 57 1009.7
20260506135526 22 191 9.7 19.3 0.00 0.74 0.36 56 1009.8
20260506135026 23 206 6.4 22.5 0.00 0.74 0.36 56 1010.0
20260506134539 23 212 9.7 22.5 0.00 0.74 0.36 56 1009.9
20260506134027 23 169 4.8 19.3 0.00 0.74 0.36 56 1009.9
20260506133527 23 188 6.4 19.3 0.00 0.74 0.36 56 1009.9
20260506133039 23 153 8.0 17.7 0.00 0.74 0.36 55 1010.1
20260506132528 23 96 8.0 19.3 0.00 0.74 0.36 55 1010.1
20260506132026 23 200 8.0 22.5 0.00 0.74 0.36 55 1010.2
20260506131546 23 206 8.0 22.5 0.00 0.74 0.36 54 1010.2
20260506131026 23 198 11.3 20.9 0.00 0.74 0.36 55 1010.1
20260506130527 22 155 3.2 19.3 0.00 0.74 0.36 58 1010.3
20260506130040 22 184 8.0 19.3 0.00 0.74 0.36 57 1010.3
20260506125526 22 202 4.8 17.7 0.00 0.74 0.36 60 1010.4
20260506125023 21 157 9.7 19.3 0.00 0.74 0.36 61 1010.4
20260506124544 21 165 8.0 19.3 0.00 0.74 0.36 64 1010.3
20260506124026 21 159 12.9 19.3 0.00 0.74 0.36 69 1010.4
20260506123523 21 111 4.8 11.3 0.00 0.74 0.36 74 1010.4
20260506123043 20 131 1.6 11.3 0.00 0.74 0.36 75 1010.4
20260506122526 20 120 4.8 14.5 0.00 0.74 0.36 77 1010.3
20260506122026 20 159 4.8 16.1 0.00 0.74 0.36 80 1010.4
20260506121542 19 155 9.7 16.1 0.00 0.74 0.36 80 1010.4
20260506121025 18 103 9.7 17.7 0.00 0.74 0.36 81 1010.4
20260506120530 19 103 11.3 17.7 0.00 0.74 0.36 80 1010.4
20260506120042 19 113 8.0 17.7 0.00 0.74 0.36 81 1010.5
20260506115529 19 112 8.0 19.3 0.00 0.74 0.36 81 1010.6
20260506115022 19 88 9.7 19.3 0.00 0.74 0.36 79 1010.4
20260506114544 19 100 9.7 19.3 0.00 0.74 0.36 78 1010.5
20260506114023 19 118 14.5 19.3 0.00 0.74 0.36 77 1010.5
20260506113528 19 116 11.3 19.3 0.00 0.74 0.36 76 1010.6
20260506113044 20 105 6.4 14.5 0.00 0.74 0.36 75 1010.6
20260506112526 20 103 6.4 14.5 0.00 0.74 0.36 73 1010.7
20260506112026 20 82 6.4 12.9 0.00 0.74 0.36 70 1010.7
20260506111545 21 91 0.0 9.7 0.00 0.74 0.36 65 1010.7
20260506111026 21 0 0.0 0.0 0.00 0.74 0.36 62 1010.6
20260506110527 21 0 0.0 0.0 0.00 0.74 0.36 63 1010.7
20260506110040 21 0 0.0 3.2 0.00 0.74 0.36 65 1010.7
20260506105527 21 0 0.0 6.4 0.00 0.74 0.36 64 1010.7
20260506105030 21 0 3.2 6.4 0.00 0.74 0.36 64 1010.8
20260506104541 21 124 1.6 6.4 0.00 0.74 0.36 63 1010.9
20260506104026 20 124 1.6 6.4 0.00 0.74 0.36 63 1010.9
20260506103527 20 108 3.2 9.7 0.00 0.74 0.36 65 1010.9
20260506103048 20 105 3.2 11.3 0.00 0.74 0.36 65 1010.9
20260506102526 20 104 3.2 11.3 0.00 0.74 0.36 64 1011.0
20260506102023 20 138 4.8 11.3 0.00 0.74 0.36 63 1011.1
20260506101535 20 161 4.8 11.3 0.00 0.74 0.36 63 1011.0
20260506101029 20 163 6.4 11.3 0.00 0.74 0.36 62 1011.1
20260506100526 21 155 4.8 14.5 0.00 0.74 0.36 62 1011.1
20260506100041 21 138 6.4 16.1 0.00 0.74 0.36 61 1011.0
20260506095526 21 139 8.0 16.1 0.00 0.74 0.36 61 1011.1
20260506095027 21 136 6.4 17.7 0.00 0.74 0.36 61 1011.1
20260506094542 21 188 4.8 17.7 0.00 0.74 0.36 62 1011.1
20260506094026 21 203 9.7 16.1 0.00 0.74 0.36 62 1011.1
20260506093528 20 135 3.2 19.3 0.00 0.74 0.36 64 1011.2
20260506093042 20 0 3.2 19.3 0.00 0.74 0.36 66 1011.1
20260506092530 20 123 6.4 16.1 0.00 0.74 0.36 67 1011.2
20260506092026 20 161 8.0 16.1 0.00 0.74 0.36 66 1011.2
20260506091550 20 136 4.8 11.3 0.00 0.74 0.36 69 1011.2
20260506091027 19 83 4.8 11.3 0.00 0.74 0.36 70 1011.1
20260506090526 19 90 4.8 11.3 0.00 0.74 0.36 72 1011.2
20260506090040 19 134 3.2 6.4 0.00 0.74 0.36 72 1011.2
20260506085528 19 137 0.0 8.0 0.00 0.74 0.36 71 1011.3
20260506085026 19 137 1.6 12.9 0.00 0.74 0.36 70 1011.2
20260506084548 18 135 3.2 12.9 0.00 0.74 0.36 71 1011.0
20260506084026 18 131 4.8 12.9 0.00 0.74 0.36 71 1011.0